Wind_Speed
38 38 39 41 42 42 42 42 43 44 45 46 47 47 47 47 48 48 48 48 48 48 47 47 45 45 45 44 43 43 42 41 40 40 40 39 40 40 40 40 40 41 41
36 37 38 39 40 40 41 40 40 41 42 43 44 45 45 46 47 48 49 48 47 47 46 45 45 44 44 44 44 43 42 40 40 40 40 40 41 41 41 41 41 42 43
33 34 35 35 36 37 38 38 38 39 40 40 42 44 44 44 44 46 46 46 46 46 45 45 44 44 44 44 44 44 42 41 40 40 41 41 41 41 41 42 42 42 42
29 31 31 31 31 32 33 35 36 36 38 39 41 41 42 42 42 42 43 45 45 44 44 43 43 44 43 44 44 43 42 42 42 42 43 43 43 43 42 42 43 42 42
26 27 27 28 28 30 31 33 33 34 35 37 39 40 41 41 40 41 42 44 44 44 43 43 43 44 44 44 43 43 42 42 43 43 44 44 43 43 43 42 41 41 42
23 24 25 26 27 29 30 32 32 33 34 35 36 38 39 39 39 40 40 41 42 43 43 42 41 42 43 43 43 43 43 43 43 43 43 43 43 43 43 42 42 41 41
23 24 24 25 26 27 27 28 29 30 31 32 34 36 37 37 36 37 38 38 40 41 41 40 39 40 41 41 42 43 43 42 42 42 42 42 42 42 43 43 43 43 43
20 21 23 23 23 24 25 25 25 26 28 29 30 32 33 34 34 34 34 34 34 36 37 37 37 38 38 39 39 39 40 40 41 41 41 42 42 43 43 45 45 45 45
15 17 18 19 20 22 23 24 23 23 24 26 27 28 29 30 30 29 28 29 31 32 33 33 34 34 35 35 36 37 37 38 39 40 40 42 43 43 44 45 46 46 47
12 13 14 16 17 19 20 21 20 19 20 20 22 24 25 24 24 23 24 25 27 27 29 30 31 32 32 32 33 34 35 36 38 39 40 41 42 43 44 45 46 47 47
10 10 10 10 12 13 14 15 16 16 16 16 18 19 20 20 20 20 21 22 23 23 24 25 26 27 28 30 31 32 33 36 38 39 40 42 42 44 45 45 46 46 47
8 7 7 7 8 10 10 11 12 12 12 13 15 17 18 19 20 20 20 20 20 21 22 23 24 26 27 28 29 31 32 34 36 37 39 40 41 43 43 44 45 46 46
7 7 7 7 7 8 9 9 10 9 8 9 12 15 16 16 17 17 17 18 19 20 21 21 22 24 26 27 29 30 32 33 34 35 36 38 40 41 42 43 43 44 45
7 7 6 5 6 6 8 8 8 8 8 8 9 12 14 14 15 15 16 17 19 20 21 22 23 24 26 27 28 29 31 32 34 34 36 37 38 40 41 41 42 43 44
6 6 6 6 6 7 8 9 9 8 9 9 9 10 12 13 15 17 18 19 19 20 21 22 23 25 26 27 29 30 31 32 34 35 37 38 38 39 39 40 41 43 43
6 6 6 6 6 7 8 9 10 10 11 11 10 10 12 13 14 15 17 18 20 21 22 23 24 25 27 28 29 31 32 34 35 36 37 38 39 39 41 41 42 42 42
5 6 6 7 7 7 8 9 10 11 11 12 12 13 14 15 15 16 17 18 19 21 23 24 25 26 27 28 30 32 33 34 35 36 37 38 39 40 40 40 41 41 41
9 8 8 9 9 10 9 9 10 11 13 14 14 14 15 15 15 16 17 18 20 22 23 24 25 26 28 29 30 31 32 33 34 36 37 38 38 39 39 39 39 39 39
10 10 10 10 11 11 12 12 12 13 14 14 14 15 15 15 16 17 18 20 21 22 23 24 26 27 28 29 31 32 33 34 35 37 38 37 36 36 37 37 37 38 38
13 13 13 12 12 12 13 13 13 14 14 14 14 14 15 16 17 19 20 21 22 24 24 25 27 28 29 30 31 33 34 35 35 36 36 35 34 34 35 36 37 38 38
14 15 15 15 14 14 14 14 14 14 14 15 15 16 16 17 18 20 21 22 24 25 25 26 27 29 30 31 32 33 34 35 36 36 36 35 35 35 35 36 37 37 38
15 15 15 15 15 15 15 15 15 16 16 16 17 18 19 20 21 22 22 23 24 25 26 27 28 30 31 32 33 34 35 36 36 36 36 37 37 37 36 37 37 37 37
16 16 17 17 17 17 17 17 18 18 18 19 19 20 21 22 23 24 25 26 26 27 28 29 30 31 32 33 34 35 36 36 36 36 37 37 37 37 37 37 36 36 37
19 19 19 19 19 19 19 20 20 20 20 21 21 22 23 24 25 26 27 28 29 30 30 31 32 32 33 34 35 36 36 37 37 37 37 37 37 37 36 36 36 36 35
21 21 21 21 21 22 22 23 23 23 23 24 24 24 25 27 27 28 28 29 30 31 32 32 33 34 34 35 36 37 37 37 37 37 37 36 36 36 36 36 35 36 35
23 23 23 24 24 24 24 25 25 26 26 26 27 28 28 29 29 29 30 31 31 32 32 33 34 35 36 37 37 37 37 37 38 37 36 36 35 35 35 35 35 35 35
Wind_Direction
251 251 251 251 251 250 250 250 249 248 248 248 248 247 248 249 250 251 251 252 252 253 255 256 258 258 258 259 262 263 264 264 265 265 266 269 272 274 276 278 279 281 283
251 252 251 251 250 250 250 250 248 247 247 247 247 246 247 247 249 250 250 251 252 253 255 256 257 257 256 257 261 263 262 262 263 265 267 269 272 275 276 278 280 282 283
252 253 251 251 250 249 248 248 247 246 247 248 248 247 247 247 248 249 250 251 252 253 253 255 256 256 255 259 261 261 260 262 264 265 267 270 273 275 276 279 281 282 283
252 252 251 249 249 249 248 248 247 247 249 249 249 247 247 247 249 250 250 252 253 253 254 255 255 256 256 258 261 261 260 262 264 267 269 271 274 276 278 280 280 281 282
252 251 249 247 248 249 248 248 249 249 250 250 248 246 245 248 250 251 251 252 252 252 253 253 255 256 256 258 259 260 261 264 266 267 270 273 275 277 280 280 280 282 284
256 254 252 250 251 251 250 249 250 251 251 250 247 245 244 248 251 252 253 253 253 253 254 255 257 257 256 258 258 260 264 265 267 269 271 273 275 277 279 281 281 282 284
259 257 255 253 251 251 252 252 251 250 249 248 247 245 245 249 252 253 252 252 252 253 253 256 259 259 258 258 259 261 263 264 268 271 272 274 277 278 279 281 282 283 284
262 257 254 251 251 250 249 250 251 251 249 247 247 246 246 248 251 252 250 251 252 254 255 258 258 258 258 259 261 262 265 267 268 271 273 274 277 279 279 281 282 283 284
265 260 256 252 250 250 250 250 251 251 251 249 247 247 247 249 249 250 251 252 253 254 255 255 256 257 259 262 264 266 266 268 269 272 274 274 276 277 280 283 284 284 285
270 263 257 254 250 248 249 249 248 244 244 246 247 247 246 245 245 246 250 249 252 253 255 255 258 259 260 264 265 266 267 269 271 272 275 277 278 279 282 284 285 286 288
278 268 259 253 246 244 244 242 240 243 245 246 245 243 240 237 239 243 249 250 250 252 256 260 262 261 263 265 266 269 272 273 273 274 276 279 279 280 282 283 286 288 289
279 267 256 249 245 236 233 233 233 237 242 244 242 238 238 241 244 248 249 251 255 258 261 264 265 267 269 270 271 274 276 278 278 279 279 280 280 282 283 285 287 288 289
271 264 257 255 247 236 229 225 227 234 238 238 234 230 234 241 247 250 253 256 260 265 269 270 272 273 273 275 278 280 281 282 284 284 284 283 282 284 285 285 288 289 289
262 253 247 249 255 245 236 228 232 237 239 237 239 239 239 245 251 258 262 264 267 270 273 276 278 278 278 278 281 284 285 286 287 288 288 287 286 287 286 286 289 290 290
262 254 252 256 259 250 243 242 243 243 241 245 251 251 252 257 263 266 267 269 271 276 281 284 284 283 284 284 284 285 287 289 289 290 291 290 289 289 288 287 289 291 291
266 257 256 259 258 258 253 253 250 250 251 255 261 263 264 266 273 274 275 278 280 283 286 288 289 288 288 288 287 288 290 292 293 293 293 292 291 289 289 290 290 291 291
276 258 258 259 258 259 260 255 253 255 257 262 269 270 270 273 276 279 283 287 289 289 289 290 291 291 290 290 290 290 291 292 294 294 294 293 292 291 289 289 290 291 291
273 267 265 264 265 265 263 262 263 262 264 268 272 274 276 276 281 288 289 290 291 293 293 294 295 294 293 292 292 293 295 294 296 297 297 298 296 295 292 290 290 291 292
271 268 269 269 269 265 264 265 269 270 270 271 275 276 277 279 284 289 291 292 294 295 296 296 298 298 297 295 295 296 297 298 299 300 301 300 300 298 296 293 291 292 293
273 269 269 270 271 270 267 268 272 274 275 273 273 278 281 281 284 288 291 294 296 297 297 297 298 300 300 299 298 298 299 301 302 303 303 301 300 301 300 297 294 294 294
275 271 269 268 269 269 269 269 270 271 273 275 275 277 282 286 289 291 293 295 297 299 299 299 299 300 301 301 301 301 301 302 304 304 303 301 302 301 301 300 299 297 296
276 271 269 269 269 268 268 270 272 273 274 276 278 280 283 287 291 293 294 296 298 299 300 301 301 301 302 303 303 302 302 303 304 304 305 303 303 302 300 299 299 298 298
277 273 269 269 270 270 269 270 272 274 275 277 279 282 285 288 290 292 293 294 297 299 300 301 302 303 303 303 303 302 302 303 303 304 304 303 303 303 302 300 300 299 299
277 273 269 267 266 268 269 271 273 275 277 278 279 282 285 288 291 292 293 294 296 298 300 301 301 302 303 303 302 302 302 302 302 303 304 304 304 303 302 302 301 300 300
275 272 269 267 266 267 269 270 272 273 276 278 279 282 285 287 290 292 293 294 296 297 299 301 302 303 304 305 304 304 303 302 302 303 304 305 305 304 303 303 302 301 301
276 274 272 270 269 270 270 271 271 273 275 277 278 281 283 285 288 290 292 293 295 297 298 300 302 303 305 306 306 306 305 303 303 304 304 304 305 306 304 304 304 303 303
Height
5696 5698 5701 5704 5707 5710 5713 5715 5718 5722 5725 5729 5733 5737 5741 5745 5748 5750 5754 5757 5760 5762 5765 5768 5770 5772 5774 5776 5778 5779 5780 5781 5782 5783 5784 5784 5784 5784 5784 5783 5782 5781 5780
5688 5690 5693 5694 5697 5700 5703 5706 5709 5712 5715 5719 5723 5727 5731 5734 5737 5740 5743 5747 5750 5753 5756 5759 5761 5763 5765 5767 5769 5770 5771 5772 5773 5774 5774 5775 5776 5776 5775 5774 5773 5771 5770
5680 5682 5684 5686 5688 5691 5694 5697 5700 5703 5706 5710 5713 5717 5720 5723 5727 5730 5734 5737 5740 5743 5746 5749 5752 5754 5756 5758 5760 5761 5762 5763 5764 5764 5765 5765 5766 5767 5767 5765 5763 5761 5759
5673 5675 5676 5679 5681 5683 5686 5689 5692 5695 5698 5700 5704 5707 5710 5714 5717 5720 5723 5727 5730 5733 5736 5739 5742 5745 5747 5749 5750 5751 5753 5754 5754 5755 5755 5756 5755 5755 5756 5755 5753 5751 5749
5667 5668 5669 5672 5674 5676 5679 5682 5684 5687 5689 5691 5694 5698 5701 5705 5708 5711 5714 5717 5720 5723 5726 5729 5732 5735 5737 5739 5741 5742 5743 5744 5744 5745 5746 5745 5745 5744 5743 5744 5743 5741 5739
5662 5662 5663 5665 5667 5669 5672 5674 5677 5679 5680 5683 5685 5688 5693 5696 5699 5702 5705 5708 5711 5714 5718 5720 5722 5725 5727 5728 5730 5731 5732 5733 5734 5735 5735 5735 5734 5734 5733 5732 5732 5730 5728
5656 5657 5658 5659 5661 5663 5665 5667 5669 5671 5673 5675 5678 5681 5685 5688 5691 5694 5697 5700 5703 5706 5709 5711 5713 5715 5717 5718 5719 5721 5722 5723 5723 5724 5724 5724 5724 5723 5722 5720 5720 5718 5718
5651 5651 5652 5654 5655 5657 5659 5661 5663 5664 5666 5668 5671 5674 5678 5680 5683 5686 5689 5691 5694 5697 5699 5702 5704 5705 5707 5708 5709 5710 5711 5712 5712 5713 5713 5713 5713 5711 5711 5709 5708 5707 5706
5647 5647 5647 5649 5650 5652 5654 5657 5658 5660 5661 5663 5665 5668 5671 5674 5677 5679 5682 5684 5686 5689 5691 5693 5694 5696 5697 5698 5699 5700 5701 5702 5702 5702 5702 5702 5701 5700 5699 5697 5695 5694 5692
5644 5644 5644 5645 5646 5648 5650 5652 5654 5655 5656 5658 5660 5662 5665 5668 5671 5673 5676 5678 5680 5682 5684 5685 5686 5687 5688 5689 5690 5690 5691 5691 5692 5692 5691 5690 5689 5688 5687 5685 5683 5680 5678
5641 5641 5642 5642 5643 5644 5646 5648 5650 5651 5653 5654 5656 5658 5661 5664 5666 5668 5670 5672 5674 5675 5676 5677 5678 5679 5680 5680 5681 5681 5681 5682 5682 5681 5680 5679 5678 5676 5675 5673 5670 5667 5664
5639 5639 5640 5640 5641 5642 5643 5645 5647 5649 5650 5651 5653 5655 5658 5660 5662 5664 5665 5667 5668 5669 5670 5671 5671 5671 5671 5672 5672 5672 5672 5672 5671 5669 5668 5667 5666 5664 5662 5660 5657 5654 5650
5638 5638 5638 5639 5640 5641 5642 5644 5646 5647 5648 5649 5650 5652 5655 5656 5658 5659 5660 5662 5663 5664 5664 5664 5664 5663 5663 5664 5664 5664 5663 5661 5660 5658 5657 5656 5654 5652 5650 5647 5644 5641 5637
5637 5637 5637 5638 5638 5639 5641 5642 5644 5645 5646 5647 5648 5649 5651 5653 5654 5654 5655 5656 5657 5658 5658 5658 5657 5656 5656 5656 5655 5655 5653 5652 5650 5648 5646 5644 5642 5640 5637 5635 5632 5629 5625
5635 5636 5636 5636 5637 5638 5639 5640 5641 5642 5644 5645 5646 5647 5648 5649 5649 5650 5651 5651 5652 5652 5651 5651 5650 5649 5648 5647 5647 5646 5644 5643 5640 5638 5636 5633 5631 5628 5625 5623 5620 5617 5613
5634 5634 5634 5635 5636 5636 5637 5638 5639 5640 5642 5643 5644 5644 5645 5645 5646 5646 5646 5646 5646 5646 5645 5644 5643 5641 5640 5639 5638 5637 5635 5633 5631 5628 5625 5622 5620 5617 5614 5611 5608 5605 5601
5633 5633 5633 5633 5634 5634 5635 5636 5637 5638 5639 5640 5641 5641 5642 5642 5642 5642 5642 5641 5640 5639 5638 5637 5636 5634 5632 5631 5630 5628 5626 5624 5621 5618 5615 5612 5609 5605 5602 5599 5596 5593 5589
5631 5631 5631 5631 5632 5632 5633 5633 5634 5635 5636 5637 5637 5637 5638 5638 5638 5637 5637 5636 5635 5633 5632 5631 5629 5627 5625 5624 5622 5620 5617 5614 5611 5608 5605 5601 5597 5594 5591 5588 5585 5582 5579
5629 5629 5628 5629 5629 5629 5630 5630 5631 5632 5633 5633 5633 5634 5634 5633 5633 5633 5632 5631 5629 5628 5626 5625 5623 5620 5618 5616 5614 5611 5608 5605 5602 5599 5595 5591 5588 5584 5580 5578 5575 5572 5569
5625 5625 5625 5625 5626 5626 5626 5627 5628 5628 5629 5629 5629 5629 5629 5629 5628 5627 5626 5625 5624 5622 5620 5618 5616 5614 5611 5608 5605 5603 5600 5597 5594 5590 5586 5582 5578 5574 5570 5567 5564 5562 5559
5621 5621 5621 5622 5622 5622 5623 5623 5624 5625 5625 5625 5625 5624 5624 5623 5623 5622 5621 5620 5618 5616 5614 5612 5609 5607 5604 5600 5597 5593 5591 5588 5584 5581 5577 5573 5569 5565 5561 5558 5554 5551 5548
5617 5617 5617 5617 5618 5618 5618 5619 5620 5620 5620 5620 5619 5619 5619 5618 5617 5616 5615 5613 5612 5610 5607 5604 5602 5599 5596 5592 5588 5585 5581 5578 5575 5571 5568 5564 5560 5555 5552 5548 5544 5540 5537
5613 5613 5612 5613 5613 5613 5613 5614 5614 5614 5614 5614 5614 5613 5613 5612 5611 5610 5608 5607 5605 5603 5600 5597 5595 5591 5587 5584 5580 5576 5573 5569 5565 5561 5558 5554 5550 5545 5541 5537 5534 5530 5526
5608 5607 5607 5607 5607 5607 5608 5608 5608 5608 5608 5608 5607 5607 5606 5605 5604 5602 5600 5599 5597 5595 5592 5590 5586 5583 5579 5575 5571 5567 5563 5560 5556 5552 5548 5544 5540 5535 5531 5527 5523 5519 5516
5602 5601 5601 5601 5601 5601 5601 5601 5601 5601 5601 5601 5600 5600 5599 5597 5596 5594 5592 5591 5589 5586 5584 5581 5578 5574 5571 5566 5562 5558 5554 5550 5546 5542 5538 5534 5530 5526 5521 5517 5513 5509 5506
5595 5594 5594 5594 5594 5594 5594 5594 5594 5594 5593 5593 5592 5591 5590 5589 5588 5586 5584 5582 5580 5577 5575 5572 5569 5565 5562 5557 5553 5549 5544 5540 5536 5532 5528 5524 5520 5516 5512 5508 5504 5500 5496